Regional Weather Roundup
Issued by NWS

Home | Current Version | Previous Version | Text Only | Print | Product List | Glossary On
Versions: 1 2 3 4 5 6 7 8 9 10 11 12 13 14 15 16 17 18 19 20 21 22 23 24 25 26 27 28 29 30 31 32 33 34 35 36 37 38 39 40 41 42 43 44 45 46 47 48 49 50
000
ASUS44 KBMX 272010
RWRAL

ALABAMA REGIONAL WEATHER ROUNDUP
NATIONAL WEATHER SERVICE BIRMINGHAM AL
300 PM CDT WED MAY 27 2015

NOTE: "FAIR" INDICATES FEW OR NO CLOUDS BELOW 12,000 FEET
WITH NO SIGNIFICANT WEATHER AND/OR OBSTRUCTIONS TO VISIBILITY.

THE REMARK "TC" DENOTES TEMPERATURE IN DEGREES CELSIUS.

ALZ001>011-014-016>018-020-272100-
NORTH ALABAMA

CITY           SKY/WX    TMP DP  RH WIND       PRES   REMARKS
MUSCLE SHOALS    N/A     81  67  62 VRB3      30.15F
HUNTSVILLE     PTSUNNY   86  68  54 E7        30.15F
DECATUR        PTSUNNY   80  70  71 NE3       30.16F
HALEYVILLE     FAIR      81  71  71 CALM      30.17F
GADSDEN        MOSUNNY  N/A N/A N/A NE6       30.15F
$$

ALZ012-013-022-023-030>036-040>044-272100-
WEST CENTRAL ALABAMA

CITY           SKY/WX    TMP DP  RH WIND       PRES   REMARKS
TUSCALOOSA     PTSUNNY   85  69  58 SE8       30.11F
$$

ALZ015-024>027-033>036-040>044-272100-
CENTRAL ALABAMA

CITY           SKY/WX    TMP DP  RH WIND       PRES   REMARKS
BIRMINGHAM     PTSUNNY   83  69  62 E9        30.16F
MONTGOMERY     PTSUNNY   87  70  56 SE8       30.12F HX  92
SHELBY CO ARPT PTSUNNY   80  70  71 SE7       30.14F
MAXWELL AFB    PTSUNNY   88  71  57 SE7       30.12F HX  94
GREENVILLE     FAIR      85  68  56 S18G30    30.13F THUNDER
$$

ALZ019-021-028-029-037-038-045>048-272100-
EAST CENTRAL ALABAMA

CITY           SKY/WX    TMP DP  RH WIND       PRES   REMARKS
ANNISTON       SUNNY     86  67  52 E8        30.16F
ALEXANDER CITY SUNNY     87  67  51 SE6       30.17F HX  90
AUBURN         MOSUNNY   82  66  57 SE8       30.19
$$

ALZ051>064-272100-
SOUTHWEST ALABAMA

CITY           SKY/WX    TMP DP  RH WIND       PRES   REMARKS
MOBILE         CLOUDY    83  72  69 S13       30.14R
BROOKLEY FIELD CLOUDY    83  74  74 S12       30.14S
EVERGREEN      TSTM      68  67  96 NE9       30.15S FOG
$$

ALZ049-050-065>069-272100-
SOUTHEAST ALABAMA

CITY           SKY/WX    TMP DP  RH WIND       PRES   REMARKS
DOTHAN         MOSUNNY   84  70  62 E8        30.18F
OZARK          PTSUNNY   86  71  60 SE7       30.15F HX  91
TROY           PTSUNNY   85  70  60 SE7       30.15S
EUFAULA        FAIR      88  71  57 SE5       30.14F HX  94
$$


USA.gov is the U.S. government's official web portal to all federal, state and local government web resources and services.